FW1794 Istanbul TK current weather conditions

sailwx.info

Wind from 158 at 0 knots gusting 1

Air temperature 10.0° C
Dewpoint 4.6° C

Last reported at 2019-Dec-11 20:00 UTC.
Time now 2019-Dec-11 20:40 UTC

Location: N 41°10' E 029°35'.
View on Google Maps.

See reports from other nearby stations

  
Tides and Currents Weather Stations Pressure Air Temp Water Temp Dewpoint Dewpoint Depression Visibility Wind Speed Wind Dir Waves Ship Positions
date/time (UTC)wind fromknots sea level pressurealtimeterstation pressurevisibilityair tempwater tempwave heightnotes
2019-Dec-11 20:00 158 0 gusting 1 10.0
2019-Dec-11 19:50 215 10.0
2019-Dec-11 19:40 212 0 gusting 0 10.0
2019-Dec-11 19:30 171 0 gusting 1 10.0
2019-Dec-11 19:20 225 0 gusting 0 10.0
2019-Dec-11 19:10 179 0 gusting 1 10.6
2019-Dec-11 19:00 177 0 gusting 1 10.6
2019-Dec-11 18:50 163 10.6
2019-Dec-11 18:40 097 10.6
2019-Dec-11 18:30 157 11.1
2019-Dec-11 18:20 169 11.1
2019-Dec-11 18:10 131 11.1
2019-Dec-11 18:00 113 11.7
2019-Dec-11 17:50 143 0 gusting 0 11.7
2019-Dec-11 17:40 145 0 gusting 2 11.7
2019-Dec-11 17:30 137 12.2
2019-Dec-11 17:20 041 0 gusting 3 12.2
2019-Dec-11 17:10 090 12.2
2019-Dec-11 17:00 12.2
2019-Dec-11 16:50 12.2
2019-Dec-11 16:40 099 12.2
2019-Dec-11 16:30 113 12.2
2019-Dec-11 16:20 12.2
2019-Dec-11 16:10 147 12.2
2019-Dec-11 16:00 140 12.2
2019-Dec-11 15:50 135 12.2
2019-Dec-11 15:40 142 12.8
2019-Dec-11 15:30 087 0 gusting 0 12.8
2019-Dec-11 15:20 105 1 gusting 2 12.8
2019-Dec-11 15:10 038 2 gusting 4 12.8
2019-Dec-11 15:00 024 2 gusting 5 12.8
2019-Dec-11 14:50 063 2 gusting 4 12.8
2019-Dec-11 14:40 053 2 gusting 4 12.8
2019-Dec-11 14:30 035 2 gusting 4 12.8
2019-Dec-11 14:20 024 3 gusting 5 12.8
2019-Dec-11 14:10 032 2 gusting 6 12.8
2019-Dec-11 14:00 045 3 gusting 5 12.8
2019-Dec-11 13:50 058 1 gusting 5 12.8
2019-Dec-11 13:40 052 1 gusting 3 12.8
2019-Dec-11 13:30 045 3 gusting 6 12.8
2019-Dec-11 13:20 045 3 gusting 5 12.8
2019-Dec-11 13:10 029 4 gusting 5 12.8
2019-Dec-11 13:00 037 3 gusting 5 12.8
2019-Dec-11 12:50 025 5 gusting 7 12.8
2019-Dec-11 12:40 059 5 gusting 6 12.8
2019-Dec-11 12:30 025 4 gusting 9 12.8
2019-Dec-11 12:20 059 4 gusting 6 13.3
2019-Dec-11 12:10 027 4 gusting 6 13.3
2019-Dec-11 12:00 042 5 gusting 6 13.3
2019-Dec-11 11:50 023 6 gusting 10 13.3
2019-Dec-11 11:40 037 4 gusting 7 13.3
2019-Dec-11 11:30 031 3 gusting 6 13.3
2019-Dec-11 11:20 038 4 gusting 6 12.8
2019-Dec-11 11:10 025 5 gusting 7 12.8
2019-Dec-11 11:00 042 4 gusting 7 12.8
2019-Dec-11 10:50 022 5 gusting 7 12.8
2019-Dec-11 10:40 019 4 gusting 7 12.8
2019-Dec-11 10:30 061 4 gusting 8 12.8
2019-Dec-11 10:20 022 4 gusting 5 12.8
2019-Dec-11 10:10 045 3 gusting 5 12.8
2019-Dec-11 10:00 036 3 gusting 6 12.8
2019-Dec-11 09:50 033 4 gusting 7 12.8
2019-Dec-11 09:40 023 3 gusting 6 12.8
2019-Dec-11 09:30 009 4 gusting 6 12.2
2019-Dec-11 09:20 12.2
2019-Dec-11 09:10 020 3 gusting 6 11.7
2019-Dec-11 09:00 024 3 gusting 5 11.1
2019-Dec-11 08:50 027 2 gusting 6 11.1
2019-Dec-11 08:40 042 0 gusting 3 10.6
2019-Dec-11 08:30 087 10.0
2019-Dec-11 08:20 9.4
2019-Dec-11 08:10 8.3
2019-Dec-11 08:00 128 7.8
2019-Dec-11 07:50 137 0 gusting 2 7.2
2019-Dec-11 07:40 142 0 gusting 1 6.7
2019-Dec-11 07:30 136 6.1
2019-Dec-11 07:20 130 5.6
2019-Dec-11 07:10 132 0 gusting 1 5.0
2019-Dec-11 07:00 127 0 gusting 1 5.0
2019-Dec-11 06:50 106 0 gusting 3 4.4
2019-Dec-11 06:40 137 1 gusting 1 4.4
2019-Dec-11 06:30 129 0 gusting 3 4.4
2019-Dec-11 06:20 105 0 gusting 2 4.4
2019-Dec-11 06:10 134 0 gusting 1 3.9
2019-Dec-11 06:00 137 0 gusting 0 3.9
2019-Dec-11 05:50 132 0 gusting 1 3.9
2019-Dec-11 05:40 135 0 gusting 1 3.9
2019-Dec-11 05:30 137 0 gusting 1 3.3
2019-Dec-11 05:20 158 3.9
2019-Dec-11 05:10 146 5.0
2019-Dec-11 05:00 153 3.9
2019-Dec-11 04:50 146 0 gusting 1 2.8
2019-Dec-11 04:40 158 0 gusting 1 2.8
2019-Dec-11 04:30 145 0 gusting 1 2.8
2019-Dec-11 04:20 158 0 gusting 2 2.2
2019-Dec-11 04:10 158 0 gusting 2 2.8
2019-Dec-11 04:00 146 0 gusting 0 2.8
2019-Dec-11 03:50 158 0 gusting 2 2.8
2019-Dec-11 03:40 137 1 gusting 2 2.8
2019-Dec-11 03:30 149 1 gusting 2 2.8
2019-Dec-11 03:20 125 0 gusting 2 2.8
2019-Dec-11 03:10 152 0 gusting 2 2.8
2019-Dec-11 03:00 135 0 gusting 2 2.8
2019-Dec-11 02:50 145 0 gusting 2 3.3
2019-Dec-11 02:40 155 0 gusting 2 3.3
2019-Dec-11 02:30 090 0 gusting 2 3.3
2019-Dec-11 02:20 100 0 gusting 1 3.3
2019-Dec-11 02:10 158 0 gusting 2 3.3
2019-Dec-11 02:00 140 3.9
2019-Dec-11 01:50 135 0 gusting 1 3.9
2019-Dec-11 01:40 133 1 gusting 2 3.9
2019-Dec-11 01:30 135 3.9
2019-Dec-11 01:20 113 3.9
2019-Dec-11 01:10 093 0 gusting 0 3.9
2019-Dec-11 01:00 133 0 gusting 2 3.9
2019-Dec-11 00:50 135 4.4
2019-Dec-11 00:40 106 4.4
2019-Dec-11 00:30 106 0 gusting 1 4.4
2019-Dec-11 00:20 139 0 gusting 2 4.4
2019-Dec-11 00:10 117 0 gusting 1 4.4
2019-Dec-11 00:00 114 0 gusting 1 4.4
2019-Dec-10 23:50 138 0 gusting 1 4.4
2019-Dec-10 23:40 146 4.4
2019-Dec-10 23:30 135 0 gusting 0 4.4
2019-Dec-10 23:20 130 0 gusting 1 4.4
2019-Dec-10 23:10 136 0 gusting 1 5.0
2019-Dec-10 23:00 120 0 gusting 1 5.0
2019-Dec-10 22:50 115 0 gusting 1 5.0
2019-Dec-10 22:40 137 1 gusting 1 5.0
2019-Dec-10 22:30 138 1 gusting 2 5.0
2019-Dec-10 22:20 135 0 gusting 2 5.0
2019-Dec-10 22:10 135 0 gusting 0 5.6
2019-Dec-10 22:00 143 0 gusting 2 5.6
2019-Dec-10 21:50 134 0 gusting 1 5.6
2019-Dec-10 21:40 145 0 gusting 1 5.6
2019-Dec-10 21:30 135 0 gusting 1 5.6
2019-Dec-10 21:20 131 0 gusting 2 5.6
2019-Dec-10 21:10 131 0 gusting 1 5.6
2019-Dec-10 21:00 107 0 gusting 2 5.6
2019-Dec-10 20:50 125 0 gusting 0 5.6
2019-Dec-10 20:40 124 0 gusting 2 5.6
2019-Dec-10 20:30 123 0 gusting 1 6.1
2019-Dec-10 20:20 144 6.1
2019-Dec-10 20:10 148 0 gusting 0 6.1
2019-Dec-10 20:00 142 0 gusting 2 6.7
2019-Dec-10 19:50 135 6.7
2019-Dec-10 19:40 120 0 gusting 0 6.7
2019-Dec-10 19:30 156 0 gusting 1 6.7
2019-Dec-10 19:20 108 6.7
2019-Dec-10 19:10 094 6.7
2019-Dec-10 19:00 142 0 gusting 1 7.2
2019-Dec-10 18:50 140 7.2
2019-Dec-10 18:40 116 7.8
2019-Dec-10 18:30 135 7.2
2019-Dec-10 18:20 135 7.2
2019-Dec-10 18:10 135 7.2
2019-Dec-10 18:00 132 7.2
2019-Dec-10 17:50 158 7.2
2019-Dec-10 17:40 132 7.8
2019-Dec-10 17:30 093 7.8
2019-Dec-10 17:20 116 7.8
2019-Dec-10 17:10 7.8
2019-Dec-10 17:00 118 0 gusting 0 8.3
2019-Dec-10 16:50 148 0 gusting 1 8.3
2019-Dec-10 16:40 8.3
2019-Dec-10 16:30 8.9
2019-Dec-10 16:20 8.9
2019-Dec-10 16:10 8.9
2019-Dec-10 16:00 9.4
2019-Dec-10 15:50 9.4
2019-Dec-10 15:40 10.0
2019-Dec-10 15:30 10.6
2019-Dec-10 15:20 10.6
2019-Dec-10 15:10 180 11.1
2019-Dec-10 15:00 158 11.7
2019-Dec-10 14:50 12.2
2019-Dec-10 14:40 12.2
2019-Dec-10 14:30 13.3
2019-Dec-10 14:20 13.3
2019-Dec-10 14:10 13.3
2019-Dec-10 14:00 025 13.9
2019-Dec-10 13:50 037 0 gusting 1 13.9
2019-Dec-10 13:40 011 0 gusting 3 13.9
2019-Dec-10 13:30 006 1 gusting 1 14.4
2019-Dec-10 13:20 020 1 gusting 2 14.4
2019-Dec-10 13:10 024 1 gusting 4 14.4
2019-Dec-10 13:00 018 1 gusting 3 14.4
2019-Dec-10 12:50 002 1 gusting 2 14.4
2019-Dec-10 12:40 026 1 gusting 3 14.4
2019-Dec-10 12:30 016 2 gusting 3 15.0
2019-Dec-10 12:20 010 2 gusting 5 15.0
2019-Dec-10 12:10 356 2 gusting 3 15.6
2019-Dec-10 12:00 011 2 gusting 4 15.6
2019-Dec-10 11:50 338 1 gusting 5 15.0
2019-Dec-10 11:40 002 2 gusting 2 15.0
2019-Dec-10 11:30 008 2 gusting 5 15.0
2019-Dec-10 11:20 349 2 gusting 4 15.0
2019-Dec-10 11:10 338 2 gusting 3 14.4
2019-Dec-10 11:00 333 2 gusting 5 14.4
2019-Dec-10 10:50 14.4
2019-Dec-10 10:40 001 2 gusting 5 14.4
2019-Dec-10 10:30 320 1 gusting 3 14.4
2019-Dec-10 10:20 337 1 gusting 2 14.4
2019-Dec-10 10:10 004 2 gusting 2 13.9
2019-Dec-10 10:00 353 1 gusting 3 13.9
2019-Dec-10 09:50 320 1 gusting 2 13.3
2019-Dec-10 09:40 13.3
2019-Dec-10 09:30 318 0 gusting 1 12.8
2019-Dec-10 09:20 345 0 gusting 1 12.8
2019-Dec-10 09:10 045 12.2
2019-Dec-10 09:00 072 11.7
2019-Dec-10 08:50 059 11.7
2019-Dec-10 08:40 077 11.1
2019-Dec-10 08:30 101 10.6
2019-Dec-10 08:20 096 10.0
2019-Dec-10 08:10 073 9.4
2019-Dec-10 08:00 106 8.9
2019-Dec-10 07:50 124 8.9
2019-Dec-10 07:40 133 7.2
2019-Dec-10 07:30 119 6.7
2019-Dec-10 07:20 116 0 gusting 0 6.1
2019-Dec-10 07:10 128 0 gusting 2 5.6
2019-Dec-10 07:00 144 0 gusting 1 5.0
2019-Dec-10 06:50 133 0 gusting 1 5.0
2019-Dec-10 06:40 124 0 gusting 1 5.0
2019-Dec-10 06:30 130 0 gusting 2 4.4
2019-Dec-10 06:20 137 0 gusting 1 4.4
2019-Dec-10 06:10 128 3.9
2019-Dec-10 06:00 116 1 gusting 2 3.9
2019-Dec-10 05:50 146 1 gusting 4 3.9
2019-Dec-10 05:40 146 1 gusting 2 3.9
2019-Dec-10 05:30 136 0 gusting 2 4.4
2019-Dec-10 05:20 137 0 gusting 1 4.4
2019-Dec-10 05:10 147 0 gusting 1 5.0
2019-Dec-10 05:00 116 0 gusting 1 4.4
2019-Dec-10 04:50 150 0 gusting 1 3.9
2019-Dec-10 04:40 124 0 gusting 1 3.9
2019-Dec-10 04:30 144 0 gusting 1 3.9
2019-Dec-10 04:20 131 0 gusting 1 3.9
2019-Dec-10 04:10 115 1 gusting 2 3.9
2019-Dec-10 04:00 137 1 gusting 1 3.9
2019-Dec-10 03:50 148 0 gusting 1 3.9
2019-Dec-10 03:40 141 0 gusting 1 4.4
2019-Dec-10 03:30 135 0 gusting 1 4.4
2019-Dec-10 03:20 123 4.4
2019-Dec-10 03:10 138 0 gusting 1 4.4
2019-Dec-10 03:00 134 0 gusting 1 4.4
2019-Dec-10 02:50 108 0 gusting 1 3.9
2019-Dec-10 02:40 156 0 gusting 1 4.4
2019-Dec-10 02:30 121 0 gusting 1 5.0
2019-Dec-10 02:20 132 0 gusting 2 5.0
2019-Dec-10 02:10 124 0 gusting 1 5.0
2019-Dec-10 02:00 135 5.0
2019-Dec-10 01:50 135 0 gusting 1 5.0
2019-Dec-10 01:40 136 0 gusting 2 5.0
2019-Dec-10 01:30 148 5.0
2019-Dec-10 01:20 133 0 gusting 1 5.0
2019-Dec-10 01:10 135 0 gusting 1 5.6
2019-Dec-10 01:00 153 0 gusting 0 5.6
2019-Dec-10 00:50 145 5.6
2019-Dec-10 00:40 135 5.6
2019-Dec-10 00:30 142 5.0
2019-Dec-10 00:20 135 0 gusting 1 5.6
2019-Dec-10 00:10 138 5.6
2019-Dec-10 00:00 144 5.6
2019-Dec-09 23:50 124 0 gusting 1 5.6
2019-Dec-09 23:40 116 0 gusting 1 5.6
2019-Dec-09 23:30 120 0 gusting 1 5.6
2019-Dec-09 23:20 156 0 gusting 2 5.6
2019-Dec-09 23:10 132 0 gusting 2 5.6
2019-Dec-09 23:00 152 0 gusting 2 5.6
2019-Dec-09 22:50 128 0 gusting 1 5.6
2019-Dec-09 22:40 135 0 gusting 2 5.6
2019-Dec-09 22:30 145 0 gusting 1 5.6
2019-Dec-09 22:20 149 0 gusting 2 6.1
2019-Dec-09 22:10 158 0 gusting 0 5.6
2019-Dec-09 22:00 164 1 gusting 3 5.6
2019-Dec-09 21:50 153 0 gusting 3 6.1
2019-Dec-09 21:40 129 0 gusting 1 6.1
2019-Dec-09 21:30 132 0 gusting 1 6.1
2019-Dec-09 21:20 124 6.1
2019-Dec-09 21:10 135 6.1
2019-Dec-09 21:00 153 0 gusting 0 6.1
2019-Dec-09 20:50 141 0 gusting 2 6.1
2019-Dec-09 20:40 158 0 gusting 1 6.7
2019-Dec-09 20:30 135 0 gusting 0 6.7
2019-Dec-09 20:20 144 0 gusting 1 6.7
2019-Dec-09 20:10 146 0 gusting 2 6.7
2019-Dec-09 20:00 158 0 gusting 2 7.2